Wind_Speed
38 38 31 29 25 24 21 22 24 32 33 33 36 31 28 32 34 34 41 45 43 41
26 25 22 20 22 24 27 29 28 27 28 33 32 31 33 36 34 33 41 47 46 42
17 15 17 20 21 25 27 27 26 27 32 33 35 37 41 44 43 45 47 48 46 45
16 16 15 14 13 16 20 24 27 28 31 34 35 36 39 43 44 45 44 46 47 46
11 10 11 9 8 10 13 18 22 26 29 31 34 36 38 40 43 45 45 46 45 46
15 11 6 2 3 7 14 18 23 26 30 33 34 36 37 37 36 38 42 43 45 45
15 15 12 8 8 11 15 20 23 25 30 33 35 35 35 33 33 35 37 41 43 44
16 15 14 13 13 14 17 20 23 26 29 31 32 32 31 32 32 31 36 40 41 45
17 12 15 14 15 18 18 19 22 23 26 28 28 27 29 31 33 31 32 36 38 41
24 21 21 21 20 20 21 21 20 19 21 24 26 27 27 29 35 36 37 36 36 39
25 25 24 23 22 21 21 22 24 23 22 22 21 22 26 31 35 36 35 38 38 38
27 25 26 25 24 25 25 25 24 23 23 23 20 22 25 29 31 31 34 35 35 38
28 28 28 28 28 26 25 25 24 22 20 20 20 20 21 26 32 30 29 28 36 40
26 27 28 27 28 30 26 23 24 24 22 20 20 20 18 22 31 24 27 29 32 33
Wind_Direction
197 206 199 211 220 225 220 223 230 227 230 237 242 237 242 220 227 241 250 259 254 252
166 175 184 207 211 210 201 210 206 209 220 231 236 235 225 222 231 243 251 254 255 252
135 157 185 190 195 202 203 206 215 218 221 226 222 219 228 234 242 248 252 254 250 250
130 145 158 164 185 201 212 220 226 230 231 234 239 241 243 246 248 251 254 253 249 251
98 122 139 162 191 223 235 242 241 241 245 248 248 249 249 250 249 248 250 250 252 247
57 50 54 51 271 275 274 265 257 258 256 257 257 256 254 253 250 251 248 246 248 250
33 30 15 345 314 291 277 273 265 261 261 260 261 260 258 253 253 248 249 248 247 249
36 24 12 358 340 324 310 297 284 273 265 262 261 261 261 260 252 252 253 252 248 250
35 27 11 1 350 336 321 311 300 290 281 274 268 262 258 252 248 250 254 252 252 249
28 23 18 9 355 343 336 327 318 305 294 283 277 275 268 251 242 240 248 247 249 246
23 21 19 13 2 351 344 341 337 328 317 305 297 280 265 253 238 240 245 249 249 246
20 17 16 11 3 2 357 351 347 338 327 320 306 290 270 254 242 245 243 253 249 247
19 18 17 14 7 7 6 359 351 347 338 329 316 306 289 256 247 246 250 252 245 247
21 20 19 18 15 15 15 7 4 2 355 345 338 323 309 266 259 256 248 255 255 253
Height
1408 1408 1414 1426 1430 1438 1444 1451 1454 1456 1460 1464 1467 1471 1468 1472 1481 1483 1485 1485 1487 1488
1402 1401 1410 1421 1425 1433 1439 1443 1449 1450 1453 1456 1457 1460 1464 1468 1469 1472 1474 1474 1477 1478
1395 1401 1412 1420 1425 1429 1434 1437 1442 1446 1448 1449 1451 1454 1457 1459 1461 1462 1464 1466 1468 1468
1400 1407 1414 1417 1424 1429 1432 1434 1437 1440 1442 1444 1445 1448 1450 1451 1452 1452 1454 1455 1457 1458
1409 1411 1412 1416 1421 1426 1428 1432 1432 1434 1434 1436 1438 1439 1440 1440 1441 1443 1443 1445 1446 1448
1412 1414 1414 1413 1415 1418 1423 1426 1426 1427 1426 1427 1428 1429 1429 1429 1431 1431 1432 1433 1434 1438
1411 1407 1409 1410 1412 1418 1421 1423 1421 1418 1417 1417 1417 1417 1417 1419 1421 1422 1421 1421 1424 1425
1414 1414 1413 1413 1412 1415 1415 1415 1411 1410 1409 1408 1407 1407 1407 1408 1409 1412 1411 1410 1412 1413
1417 1417 1416 1413 1410 1411 1411 1408 1404 1402 1400 1398 1397 1397 1397 1399 1398 1401 1401 1400 1400 1402
1415 1414 1407 1405 1407 1408 1405 1404 1401 1397 1393 1390 1387 1387 1389 1387 1385 1388 1390 1391 1392 1393
1421 1417 1413 1411 1410 1409 1405 1397 1391 1386 1384 1381 1380 1378 1375 1375 1374 1377 1378 1381 1384 1385
1423 1420 1415 1414 1412 1403 1396 1392 1386 1383 1379 1374 1372 1370 1367 1364 1365 1367 1370 1371 1373 1376
1424 1421 1416 1412 1407 1401 1396 1392 1388 1383 1378 1374 1366 1362 1358 1356 1359 1359 1361 1362 1364 1367
1429 1424 1419 1416 1414 1404 1398 1395 1389 1383 1379 1371 1364 1359 1354 1352 1352 1352 1352 1354 1356 1358